Location: Grand Rapids
(42.9630°N, 85.6680°W)
Time: 02:00:07
(UTC-04:00)

A-11 Canister half - Pass Details

Date: 30 May 2024
Orbit: 1524 x 1684 km, 47.3° (Epoch: 21 June)

Event Time Altitude Azimuth Distance (km) Brightness Sun altitude
Rises 04:24:32 0° 293° (WNW) 4,780 11.4 -15.0°
Reaches altitude 10° 04:28:09 10° 283° (WNW) 3,817 10.8 -14.5°
Maximum altitude 04:35:53 28° 230° (SW) 2,716 9.7 -13.6°
Drops below altitude 10° 04:43:48 10° 176° (S) 3,900 10.7 -12.7°
Sets 04:47:35 0° 166° (SSE) 4,901 11.3 -12.2°
